Showing default

COSMOS 1988 (GLONASS), 19750

Orbit data source: Space-Track

COSMOS 1988 (GLONASS), 19750 is a payload satellite owned by UNKS (CIS) in MEO that was launched on Tue, 10 Jan 1989 UTC via a PROTON-K/DM-2 launch vehicle from the Tyuratam Missile And Space Complex (TTMTR). Payload-class satellites include a variety of spacecraft equipped with specific instruments for various scientific and technological missions. These include communications satellites like Starlink; space stations such as the ISS; scientific satellites like the Hubble; Earth observation satellites from companies like Planet Labs, Umbra, and HawkEye 360; GPS; miniature CubeSats for education and research; and military/defense satellites.

Loading next visibility...
Identifier
19750, 1989-001B
Orbit
MEO
Country
Flag of CISCIS
Related business
Manufacturer
Omsk Av. Zav.
Mission
Non-operational Defense Navigation
Bus & Motor
URAGAN, Unknown motor
Mass
1,300 kg wet, ~1,200 kg dry
Launch date (UTC)
1989-01-10 (37 years ago)
Launch vehicle
PROTON-K/DM-2
Launch site
Tyuratam Missile And Space Complex (TTMTR)
Object type
Payload
Rocket body
Debris
Shape & HBR
Cyl + 2 Pan, 4.2 m
Radar Cross Section
14.707 m², Large (>1 m²)

Expand to show TLE details & history
Last TLE update: 5 days ago

TLE from 5 days ago
0 COSMOS 1988 (GLONASS)
1 19750U 89001B   26168.24338587 -.00000021  00000-0  00000-0 0  9997
2 19750  64.9463  72.6302 0014701 220.9274 316.3595  2.13101614291288
Epoch: 2026-06-17T05:50Z
TLE epoch observation values (Epoch: 2026-06-17T05:50:28.539Z)
Latitude
2.54582°
Longitude
-101.66638°
Altitude
19,103.032 km
Speed
3.957 km/s
True Right ascension
16h 45m 49s
True Declination
2° 32' 30"
Sunlit
Object was in daylight at epoch
Visualization orbit readout
Latitude
Unknown
Longitude
Unknown
Altitude
Unknown
Speed
Unknown
Apparent Right ascension
Unknown
Apparent Declination
Unknown
Sunlit
N/A
Visualization observer readout
Local Sidereal Time
23:21:10
Azimuth
Unknown
Elevation
Unknown
Doppler factor
Unknown
Orbital elements
Apogee altitude
19,167.034 km
Perigee altitude
19,092.036 km
Semi-major axis
25,507.672 km
Eccentricity
0.00147
Inclination
64.9463°
RAAN
72.6302°
Arg. of periapsis
220.9274°
True anomaly
316.24309°
Mean anomaly
316.3595°
Eccentric anomaly
316.30131°
Mean motion
0.53277 °/min
Orbital period
675.72 mins
BSTAR
0
Loading maneuver chart data...
Computing Atmospheric mass density...

Documentation

Showing up to 5 results
|